Wind_Speed
5 4 9 9 7 5 2 3 5 6 9 4 13 9 8 8 5 8 8 8 7 7 6 12 12 11 11 12 13 15 21 29 34 32 36 32 32 30 31 30 25 21 16 16
3 14 8 8 5 5 5 5 11 9 9 7 8 11 5 10 12 13 12 9 9 5 6 9 14 14 14 15 17 19 20 29 32 32 27 29 29 29 30 32 32 29 18 14
8 4 14 10 5 6 7 7 10 8 8 4 1 8 4 5 5 8 9 9 7 10 9 10 13 17 21 21 19 18 23 26 23 24 25 24 27 32 24 31 33 32 31 20
7 12 4 6 10 8 7 10 11 8 2 5 5 5 5 3 7 8 12 11 12 12 8 7 12 17 23 27 25 24 25 29 28 26 25 26 26 24 25 30 35 35 34 29
10 7 11 13 16 7 9 5 9 9 7 3 2 2 7 4 6 11 15 16 15 15 14 13 12 21 24 24 28 28 28 30 30 30 30 31 28 25 23 25 27 34 40 38
12 3 6 9 7 10 10 4 3 0 4 2 6 6 5 5 7 5 10 15 16 15 14 13 17 16 19 24 24 28 31 33 37 37 37 36 34 33 33 30 30 33 37 41
5 9 3 2 2 2 5 2 3 3 0 5 5 2 8 8 11 12 12 17 18 17 17 15 14 17 21 25 29 30 32 32 36 40 42 41 41 37 32 33 35 35 40 43
10 5 11 6 12 7 6 9 5 6 4 4 1 5 6 7 9 9 8 14 14 16 16 18 19 23 26 29 31 31 33 34 36 39 40 41 40 37 37 35 36 38 40 42
6 6 4 6 7 11 4 5 7 5 3 2 4 6 7 7 10 10 10 8 14 18 18 21 19 28 29 32 34 36 35 38 38 40 40 41 42 41 38 37 38 39 40 42
4 2 5 5 4 5 7 5 2 2 4 4 3 3 5 8 5 5 6 9 13 17 17 16 17 25 31 34 35 37 40 38 34 34 38 41 41 40 41 36 37 42 43 41
9 4 6 4 4 7 2 3 2 3 4 6 2 5 7 8 8 5 1 4 9 10 15 18 18 28 33 30 34 39 37 35 37 44 41 40 40 38 35 37 40 40 39 39
4 5 10 18 8 3 3 6 9 5 4 2 4 8 5 8 6 6 4 3 6 9 11 14 17 23 28 34 36 41 36 42 47 45 40 40 39 35 35 38 37 39 43 39
5 3 2 14 4 3 7 6 5 2 3 10 7 6 2 5 6 8 6 8 5 8 8 9 10 15 23 30 34 35 37 43 43 39 43 39 38 37 40 41 44 43 42 44
6 3 4 4 5 5 3 8 8 9 6 4 10 7 5 7 8 8 8 8 8 9 10 8 8 13 21 28 33 34 37 41 42 40 40 40 42 41 39 42 36 44 45 43
4 2 4 10 11 10 15 12 9 12 7 9 7 10 10 10 10 11 12 6 7 8 8 9 9 11 13 22 28 32 35 35 39 38 38 42 39 37 33 37 39 40 39 41
2 1 5 6 12 15 14 16 18 16 5 7 6 7 8 10 8 6 10 9 9 10 10 11 13 11 11 20 27 31 33 36 36 37 38 34 34 35 35 36 32 33 36 36
4 4 0 3 11 16 10 8 10 9 6 7 9 8 7 7 7 10 12 10 12 13 14 11 12 15 15 23 30 30 33 30 33 32 30 31 32 32 28 29 29 30 29 29
6 5 1 3 4 5 6 23 10 13 13 8 4 4 8 9 9 9 8 9 13 13 13 10 9 11 23 25 24 24 23 24 26 25 27 26 29 26 27 28 29 29 28 28
5 5 3 3 2 8 13 8 8 11 20 6 10 9 8 11 3 7 7 9 13 14 15 11 11 12 19 23 24 21 17 20 22 20 23 24 27 26 26 26 26 27 26 22
5 3 3 2 3 5 10 18 10 12 16 6 6 6 8 2 4 7 11 6 11 10 7 9 14 15 21 22 25 22 17 18 18 21 22 24 24 25 23 23 22 21 21 20
3 2 4 2 4 7 8 7 4 2 6 9 7 5 6 3 5 8 9 9 5 4 6 9 17 16 18 24 25 19 19 15 19 20 19 20 21 23 24 24 22 21 20 21
6 8 4 3 3 8 7 0 8 6 8 13 8 6 7 8 9 7 8 7 5 7 7 12 11 12 18 22 24 18 17 20 22 22 21 20 20 19 19 19 19 20 24 26
4 6 6 8 6 5 6 5 7 7 6 10 12 7 6 8 7 9 6 5 5 5 4 9 12 16 16 19 21 19 18 22 23 22 20 19 19 20 21 23 23 23 24 24
4 4 4 2 16 15 13 11 7 14 17 14 9 11 6 5 8 8 6 4 3 5 3 10 13 9 10 15 17 21 23 23 24 25 23 21 23 22 20 21 21 23 24 22
3 2 1 7 4 12 7 12 7 9 7 7 9 6 5 8 8 5 6 5 2 4 6 11 12 13 11 14 17 20 24 27 27 27 26 25 25 25 24 20 16 17 15 19
2 1 1 4 6 6 8 12 17 3 5 8 8 9 9 6 10 7 3 3 1 6 14 13 16 18 15 17 18 17 20 25 29 26 24 25 26 25 26 29 29 21 14 10
Wind_Direction
196 162 203 195 193 147 170 277 265 255 264 250 246 252 213 200 202 210 218 220 217 212 157 179 177 176 181 185 177 166 164 158 172 170 168 166 170 170 178 165 169 167 183 182
240 229 194 184 191 204 213 250 269 286 264 173 264 255 190 187 217 208 197 213 223 192 156 163 178 190 195 189 191 184 171 174 178 171 169 169 180 182 181 176 174 196 195 200
206 270 174 168 187 203 231 207 257 226 298 212 315 308 248 209 208 188 214 214 211 211 196 177 174 188 195 194 193 183 187 174 171 173 174 176 189 199 208 191 197 211 220 227
227 241 171 172 225 171 257 205 234 249 229 234 161 257 288 214 213 208 209 200 204 209 206 191 180 184 193 196 196 196 191 190 189 186 190 193 196 201 213 210 209 221 232 239
221 185 205 220 230 148 234 224 216 248 212 163 225 132 266 142 215 221 213 209 206 204 198 200 196 193 199 194 198 198 197 196 196 196 204 207 209 218 223 228 233 235 236 238
219 202 157 198 221 180 240 290 283 49 155 188 227 176 270 225 214 229 207 206 199 194 202 207 205 190 193 202 201 203 203 203 202 205 207 209 210 215 222 227 233 236 237 237
274 240 252 163 300 192 156 134 299 300 171 219 186 188 231 246 251 234 201 201 195 192 189 198 192 187 189 195 201 205 207 208 208 210 212 214 216 216 220 226 229 233 236 241
201 283 193 205 200 192 183 171 172 213 203 238 148 230 245 230 252 263 196 200 189 191 197 196 197 194 194 197 200 200 203 210 208 208 214 215 216 216 221 228 233 236 236 240
184 250 229 192 181 177 231 175 206 121 13 73 227 291 301 262 271 252 250 168 183 195 196 201 196 197 194 199 202 205 205 210 211 211 211 214 215 218 223 228 236 243 246 250
215 271 229 240 149 237 206 171 83 13 159 244 251 243 233 286 252 245 212 200 196 199 199 202 201 200 200 201 203 206 210 211 212 215 217 219 219 223 226 227 232 238 245 250
192 166 261 351 194 196 163 206 171 155 156 199 221 252 215 232 250 223 183 236 207 200 201 200 203 201 202 199 202 209 210 206 213 218 220 221 224 227 229 231 232 236 242 249
239 172 227 247 236 217 157 222 185 193 240 245 182 243 227 238 248 243 264 251 255 201 207 202 201 198 196 200 200 207 205 210 214 217 220 224 225 225 227 230 232 240 248 249
344 319 263 277 334 282 238 217 202 139 123 201 209 259 284 277 284 256 252 263 222 205 198 200 192 201 198 201 205 206 207 214 218 216 219 222 224 223 224 226 233 234 238 247
86 338 48 269 291 298 224 216 205 202 201 193 232 236 257 238 237 257 253 235 245 211 197 195 198 204 205 198 204 205 208 214 218 219 220 220 223 221 221 223 220 231 236 235
95 228 338 323 301 294 271 258 236 219 211 213 209 216 229 231 235 237 237 256 237 245 213 198 201 208 206 199 203 209 212 210 213 215 218 221 221 223 218 218 222 227 229 235
299 172 22 332 303 324 267 254 253 250 230 240 222 241 239 235 238 269 232 233 231 242 233 216 209 204 206 196 202 204 211 212 208 211 216 218 215 215 217 219 218 217 228 233
158 139 218 238 347 334 285 274 247 261 224 196 222 219 236 252 221 232 245 237 236 234 231 220 206 205 201 205 209 207 213 210 206 207 211 211 212 212 212 213 215 217 213 212
158 132 108 311 38 255 320 320 262 235 237 234 224 192 238 238 256 238 233 222 234 232 233 228 208 201 207 205 207 206 206 205 200 197 199 202 206 211 211 209 209 206 202 197
176 123 151 179 173 292 302 302 33 19 313 266 231 226 221 259 301 289 243 207 225 222 230 225 224 200 199 192 196 197 188 182 179 177 184 188 190 192 194 187 190 191 184 181
90 86 129 174 177 227 259 260 349 0 294 335 324 330 280 107 285 270 270 251 247 244 216 198 191 176 173 181 185 171 163 168 165 167 170 179 182 183 178 179 178 176 174 166
98 66 199 184 228 267 267 269 227 161 277 318 306 310 340 301 202 255 287 278 250 222 213 177 168 165 169 171 170 148 155 158 160 169 173 176 177 176 179 172 169 166 156 151
155 179 192 187 223 282 169 92 135 210 292 299 297 287 291 286 293 306 312 298 225 179 150 158 136 125 155 170 167 142 136 160 167 170 169 170 169 165 161 159 151 152 154 148
186 185 188 191 210 231 203 230 210 156 222 282 286 279 294 318 332 316 313 14 27 7 70 114 123 120 142 160 166 134 148 159 153 150 146 145 143 144 149 150 149 149 152 137
265 169 209 95 261 270 270 232 213 196 218 229 233 279 302 327 314 323 325 319 103 108 89 112 115 101 103 141 151 155 155 155 148 137 136 137 131 129 135 142 150 151 152 143
213 167 292 254 353 333 304 345 302 235 233 236 264 272 306 331 324 317 314 297 189 117 98 113 106 96 91 127 133 151 154 154 140 136 134 132 129 127 118 112 126 144 160 177
58 209 191 263 354 309 264 343 346 8 14 9 348 329 347 344 319 304 316 304 52 97 105 93 91 95 94 108 119 135 150 151 141 124 127 132 131 127 122 115 96 93 112 143
Height
750 763 768 764 764 765 767 772 777 767 751 756 751 755 752 752 754 757 758 756 753 752 754 759 761 766 769 772 775 776 776 777 784 789 792 798 803 807 813 815 819 820 827 829
756 753 748 754 760 764 769 777 774 760 746 753 747 748 745 749 744 746 751 753 751 750 753 758 761 764 768 773 776 777 778 782 786 789 793 798 804 808 811 812 816 822 825 828
754 744 735 749 758 765 766 772 767 766 749 747 747 752 743 744 741 744 746 746 746 746 749 754 758 762 766 768 771 775 779 781 786 790 796 801 806 808 809 811 815 817 820 824
750 737 741 748 752 758 769 750 752 755 760 769 747 777 749 740 745 743 742 742 742 743 745 750 753 758 762 766 771 775 777 781 785 790 795 799 803 805 807 811 813 816 818 819
743 738 741 746 741 747 754 741 749 749 756 756 753 770 751 739 742 737 734 733 735 736 740 743 745 750 756 763 767 771 775 778 782 786 793 797 800 804 808 810 812 815 817 820
732 724 730 733 730 737 733 740 743 747 757 771 755 763 760 743 727 720 719 725 726 731 737 740 743 750 754 759 765 769 772 773 776 781 786 790 794 799 802 805 809 811 814 815
736 732 725 722 733 730 739 750 774 772 774 772 749 759 749 723 714 706 708 710 717 722 729 735 740 745 750 755 759 763 767 770 773 777 782 785 788 792 796 800 804 805 807 809
745 749 729 720 726 733 738 744 772 777 780 761 750 757 736 711 704 698 697 700 710 718 723 726 731 736 741 747 753 758 762 766 769 773 777 781 785 788 791 796 797 799 801 802
744 739 713 711 712 721 731 743 731 759 768 772 756 739 721 706 704 699 696 701 705 708 713 717 723 727 733 739 744 749 753 757 761 765 770 773 777 781 782 786 790 792 795 796
723 735 714 708 708 711 716 720 742 755 765 766 750 744 738 713 703 698 698 698 698 697 704 710 716 721 725 731 738 744 746 750 758 764 764 765 768 771 774 779 780 782 786 789
716 726 724 712 718 721 724 729 727 735 749 757 757 745 717 708 703 694 688 689 694 696 697 700 704 710 716 726 732 733 740 748 751 749 754 759 762 766 771 772 772 774 778 781
715 723 727 717 706 702 708 716 720 738 739 747 753 727 699 699 697 694 689 688 688 688 691 693 696 702 709 714 720 722 732 735 734 740 748 752 756 760 764 765 767 771 773 774
721 728 735 719 715 708 715 711 712 718 727 730 742 727 692 693 691 689 689 686 684 685 687 690 694 697 700 707 712 717 722 722 727 736 738 744 747 750 750 753 756 760 764 762
718 728 736 741 728 715 712 705 706 709 730 727 714 709 698 691 692 687 687 684 681 680 680 684 688 688 692 697 702 706 710 713 718 726 729 733 733 737 740 744 746 749 752 755
723 736 734 733 723 715 709 704 700 701 704 715 708 709 695 692 688 683 677 677 680 679 679 680 682 682 684 689 692 698 699 705 708 713 717 718 724 728 731 734 737 741 745 746
730 731 735 732 720 713 708 696 693 692 698 699 696 700 684 679 677 680 676 674 676 674 672 670 671 674 679 679 682 685 689 691 696 700 704 710 715 718 721 727 731 734 737 740
732 739 748 738 732 733 720 701 694 692 686 686 699 690 676 676 675 675 671 670 668 665 664 665 666 666 668 671 673 676 678 684 689 693 699 703 707 711 716 718 723 727 731 734
734 738 743 740 741 736 707 697 682 684 680 679 674 670 671 670 663 661 661 663 661 657 655 655 657 659 659 662 667 670 673 680 686 689 693 699 703 708 710 712 715 721 725 728
726 738 750 755 737 723 709 697 704 714 698 675 670 666 659 661 661 660 652 653 652 648 645 645 647 651 653 657 661 667 672 677 684 686 689 694 699 703 707 711 714 717 721 729
731 732 745 744 735 737 703 693 693 693 700 683 679 670 664 661 680 667 648 645 645 641 639 640 642 647 652 657 662 667 671 677 680 685 689 691 697 702 707 709 713 719 723 728
739 739 734 740 733 723 699 694 693 707 708 690 682 673 669 665 662 652 646 642 639 638 639 639 642 644 648 657 663 667 673 678 681 687 692 695 697 701 706 710 715 720 725 731
730 733 733 732 733 728 694 697 700 698 694 692 683 677 671 665 655 648 644 643 641 639 638 641 644 647 651 656 663 669 674 678 684 690 694 698 700 702 707 712 718 723 728 734
722 718 727 722 714 693 691 688 683 684 690 688 688 673 667 662 654 651 647 645 646 647 645 644 645 650 657 661 665 672 679 684 684 691 699 704 706 709 712 717 724 729 734 739
706 704 710 708 684 683 681 681 675 676 680 674 671 672 666 661 658 652 649 646 644 647 652 652 654 660 664 667 669 675 680 684 689 694 702 709 712 715 720 724 729 733 739 744
710 700 704 698 694 691 678 686 677 674 674 670 673 667 663 661 657 653 651 649 650 650 654 656 661 666 672 673 674 680 683 687 693 698 705 712 716 719 723 729 734 738 742 744
707 708 708 708 706 708 700 693 683 675 673 669 674 669 664 661 660 656 651 653 656 655 659 664 667 671 678 680 682 686 689 689 694 702 708 713 718 722 725 729 736 741 743 747